Albuquerque, NM

4:00 PM MST on February 13, 2016 (GMT -0700)
Albuquerque International Sunport

Weather History for KABQ - August, 2013

Change the Weather History Date:

Thursday, August 8, 2013

  Actual Average Record
Temperature  
Mean Temperature 76 °F 77 °F  
Max Temperature 88 °F 88 °F 98 °F (1911)
Min Temperature 64 °F 66 °F 49 °F (1912)
Degree Days  
Heating Degree Days 0 0  
Month to date heating degree days 0 0  
Since 1 June heating degree days 0 4  
Since 1 July heating degree days 0 0  
Cooling Degree Days 11 12  
Month to date cooling degree days 99 96  
Year to date cooling degree days 1077 907  
Since 1 June cooling degree days 960 809  
Growing Degree Days 26 (Base 50)    
Moisture  
Dew Point 49 °F    
Average Humidity 46    
Maximum Humidity 73    
Minimum Humidity 18    
Precipitation  
Precipitation T in 0.06 in 0.98 in (1970)
Month to date precipitation 0.18 0.47  
Year to date precipitation 3.65 5.17  
Snow  
Snow 0.00 in - - ()
Month to date snowfall 0.0  
Since 1 June snowfall 0.0  
Since 1 July snowfall 0.0  
Snow Depth 0.00 in    
Sea Level Pressure  
Sea Level Pressure 29.89 in    
Wind  
Wind Speed 8 mph (NW)    
Max Wind Speed 23 mph    
Max Gust Speed 35 mph    
Visibility 10 miles    
Events      
T = Trace of Precipitation, MM = Missing Value Source: NWS Daily Summary

Daily Weather History Graph

Daily Weather History Graph

Search for Another Location

Airport or City:

Trip Planner

Search our weather history database for the weather conditions in past years. The results will help you decide how hot, cold, wet, or windy it might be!

Date:

Astronomy

Aug. 08, 2013 Rise Set
Actual Time 6:21 AM MDT 8:02 PM MDT
Civil Twilight 5:54 AM MDT 8:29 PM MDT
Nautical Twilight 5:21 AM MDT 9:02 PM MDT
Astronomical Twilight 4:46 AM MDT 9:36 PM MDT
Moon 8:04 AM MDT (8/8) 8:50 PM MDT (8/8)
Length of Visible Light 14h 35m
Length of Day
13h 40m
Waxing Crescent, 3% of the Moon is Illuminated
Aug 8
Waxing Crescent
Aug 14
First Quarter
Aug 20
Full
Aug 28
Last Quarter
Sep 5
New

Hourly Weather History & Observations

Time (MDT) Temp. Dew Point Humidity Pressure Visibility Wind Dir Wind Speed Gust Speed Precip Events Conditions
12:52 AM 70.0 °F 54.0 °F 57% 29.90 in 10.0 mi NW 8.1 mph - N/A   Mostly Cloudy
1:52 AM 69.1 °F 54.0 °F 58% 29.88 in 10.0 mi WNW 9.2 mph - N/A   Scattered Clouds
2:52 AM 68.0 °F 54.0 °F 61% 29.87 in 10.0 mi NW 5.8 mph - N/A   Scattered Clouds
3:52 AM 66.9 °F 54.0 °F 63% 29.87 in 10.0 mi North 3.5 mph - N/A   Scattered Clouds
4:52 AM 66.9 °F 54.0 °F 63% 29.87 in 10.0 mi North 4.6 mph - N/A   Mostly Cloudy
5:52 AM 64.9 °F 55.0 °F 70% 29.89 in 10.0 mi Calm Calm - N/A   Mostly Cloudy
6:24 AM 64.4 °F 55.4 °F 73% 30.13 in 10.0 mi ESE 3.5 mph - N/A   Mostly Cloudy
6:52 AM 64.0 °F 55.9 °F 75% 29.91 in 10.0 mi SE 3.5 mph - N/A   Scattered Clouds
7:52 AM 66.0 °F 55.0 °F 68% 29.92 in 10.0 mi SSE 3.5 mph - N/A   Scattered Clouds
8:52 AM 70.0 °F 54.0 °F 57% 29.94 in 10.0 mi Variable 5.8 mph - N/A   Scattered Clouds
9:52 AM 72.0 °F 53.1 °F 51% 29.94 in 10.0 mi NNW 8.1 mph - N/A   Scattered Clouds
10:52 AM 73.9 °F 52.0 °F 46% 29.94 in 10.0 mi NW 11.5 mph - N/A   Scattered Clouds
11:52 AM 75.0 °F 50.0 °F 41% 29.93 in 10.0 mi WNW 9.2 mph - N/A   Scattered Clouds
12:52 PM 79.0 °F 48.0 °F 34% 29.90 in 10.0 mi WNW 6.9 mph - N/A   Scattered Clouds
1:52 PM 80.1 °F 46.9 °F 31% 29.88 in 10.0 mi WSW 5.8 mph - N/A   Scattered Clouds
2:52 PM 82.9 °F 46.0 °F 27% 29.85 in 10.0 mi NW 10.4 mph 17.3 mph N/A   Scattered Clouds
3:52 PM 87.1 °F 39.9 °F 19% 29.82 in 10.0 mi WNW 17.3 mph 26.5 mph N/A   Scattered Clouds
4:52 PM 84.9 °F 39.9 °F 20% 29.82 in 10.0 mi West 12.7 mph 26.5 mph N/A   Scattered Clouds
5:52 PM 86.0 °F 41.0 °F 20% 29.82 in 10.0 mi NNW 17.3 mph 25.3 mph N/A   Scattered Clouds
6:52 PM 82.9 °F 39.9 °F 22% 29.83 in 10.0 mi North 13.8 mph 25.3 mph N/A   Scattered Clouds
7:52 PM 79.0 °F 46.9 °F 32% 29.85 in 10.0 mi WNW 8.1 mph - 0.00 in   Scattered Clouds
8:52 PM 81.0 °F 43.0 °F 26% 29.86 in 10.0 mi North 11.5 mph - N/A   Scattered Clouds
9:52 PM 78.1 °F 45.0 °F 31% 29.89 in 10.0 mi North 8.1 mph - N/A   Partly Cloudy
10:52 PM 75.9 °F 43.0 °F 31% 29.90 in 10.0 mi NNW 6.9 mph - N/A   Clear
11:52 PM 73.9 °F 45.0 °F 35% 29.91 in 10.0 mi NNE 3.5 mph - N/A   Clear